This is the latest recevied weather packets stored in our database for station/object DJ2DS-13. If no packets are shown the sender has not sent any weather packets the latest 10 day(s).
| Time | Temp. | Humidity | Pressure | Rain* | Wind** | Luminosity | Snow |
|---|---|---|---|---|---|---|---|
| 1777922050 | 9.44° C | 86% | 1012.9 hPa | 0 mm | - | 5 W/m² | - |
| 1777921749 | 9.44° C | 86% | 1012.8 hPa | 0 mm | - | 7 W/m² | - |
| 1777921449 | 9.44° C | 86% | 1012.8 hPa | 0 mm | - | 9 W/m² | - |
| 1777921148 | 9.44° C | 85% | 1012.9 hPa | 0 mm | - | 11 W/m² | - |
| 1777920847 | 10° C | 85% | 1012.9 hPa | 0 mm | - | 12 W/m² | - |
| 1777920548 | 10° C | 85% | 1012.8 hPa | 0 mm | - | 16 W/m² | - |
| 1777920247 | 10° C | 85% | 1012.7 hPa | 0 mm | - | 21 W/m² | - |
| 1777919947 | 10.56° C | 84% | 1012.8 hPa | 0 mm | - | 25 W/m² | - |
| 1777919646 | 10.56° C | 84% | 1012.8 hPa | 0 mm | - | 32 W/m² | - |
| 1777919346 | 10.56° C | 84% | 1012.7 hPa | 0 mm | - | 35 W/m² | - |
| 1777919046 | 10.56° C | 84% | 1012.7 hPa | 0 mm | - | 44 W/m² | - |
| 1777918746 | 10.56° C | 83% | 1012.7 hPa | 0 mm | - | 55 W/m² | - |
| 1777918447 | 10.56° C | 84% | 1012.7 hPa | 0 mm | - | 69 W/m² | - |
| 1777918147 | 10.56° C | 83% | 1012.6 hPa | 0 mm | - | 79 W/m² | - |
| 1777917846 | 11.11° C | 83% | 1012.6 hPa | 0 mm | - | 83 W/m² | - |
| 1777917546 | 11.11° C | 83% | 1012.7 hPa | 0 mm | - | 107 W/m² | - |
| 1777917244 | 11.11° C | 83% | 1012.6 hPa | 0 mm | - | 120 W/m² | - |
| 1777916944 | 11.11° C | 83% | 1012.6 hPa | 0 mm | - | 139 W/m² | - |
| 1777916643 | 11.11° C | 83% | 1012.7 hPa | 0 mm | - | 141 W/m² | - |
| 1777916343 | 11.67° C | 84% | 1012.6 hPa | 0 mm | - | 102 W/m² | - |
| 1777916043 | 11.67° C | 85% | 1012.6 hPa | 0 mm | - | 93 W/m² | - |
| 1777915743 | 11.67° C | 85% | 1012.7 hPa | 0 mm | - | 132 W/m² | - |
| 1777915442 | 11.67° C | 84% | 1012.5 hPa | 0 mm | - | 193 W/m² | - |
| 1777915141 | 11.67° C | 85% | 1012.5 hPa | 0 mm | - | 213 W/m² | - |
| 1777914840 | 11.67° C | 85% | 1012.5 hPa | 0 mm | - | 225 W/m² | - |
* Rain latest hour (hover to see other rain measurements)
** Current wind speed in m/s (hover to see current wind gust speed)